TimeEST,TemperatureF,Dew PointF,Humidity,Sea Level PressureIn,VisibilityMPH,Wind Direction,Wind SpeedMPH,Gust SpeedMPH,PrecipitationIn,Events,Conditions,WindDirDegrees,DateUTC
12:15 AM,42.8,42.8,100,30.12,10.0,Calm,Calm,-,N/A,,Clear,0,2014-02-20 05:15:00
12:55 AM,42.8,42.8,100,30.14,7.0,Calm,Calm,-,N/A,,Clear,0,2014-02-20 05:55:00
1:15 AM,41.0,41.0,100,30.15,10.0,Calm,Calm,-,N/A,,Clear,0,2014-02-20 06:15:00
1:35 AM,41.0,41.0,100,30.16,10.0,Calm,Calm,-,N/A,,Clear,0,2014-02-20 06:35:00
1:55 AM,41.0,41.0,100,30.16,10.0,Calm,Calm,-,N/A,,Clear,0,2014-02-20 06:55:00
2:15 AM,42.8,42.8,100,30.16,10.0,Calm,Calm,-,N/A,,Clear,0,2014-02-20 07:15:00
2:35 AM,41.0,39.2,93,30.15,10.0,ENE,3.5,-,N/A,,Clear,60,2014-02-20 07:35:00
2:55 AM,41.0,39.2,93,30.15,10.0,NE,3.5,-,N/A,,Clear,50,2014-02-20 07:55:00
3:15 AM,44.6,39.2,81,30.15,10.0,ENE,5.8,-,N/A,,Clear,60,2014-02-20 08:15:00
3:35 AM,46.4,37.4,71,30.15,10.0,ENE,4.6,-,N/A,,Clear,70,2014-02-20 08:35:00
3:55 AM,46.4,37.4,71,30.15,10.0,East,4.6,-,N/A,,Scattered Clouds,90,2014-02-20 08:55:00
4:15 AM,46.4,37.4,71,30.16,10.0,East,3.5,-,N/A,,Clear,100,2014-02-20 09:15:00
4:35 AM,50.0,35.6,58,30.17,10.0,East,3.5,-,N/A,,Scattered Clouds,90,2014-02-20 09:35:00
4:55 AM,48.2,35.6,62,30.17,10.0,East,4.6,-,N/A,,Mostly Cloudy,100,2014-02-20 09:55:00
5:15 AM,51.8,33.8,50,30.19,10.0,Calm,Calm,-,N/A,,Mostly Cloudy,0,2014-02-20 10:15:00
5:35 AM,51.8,33.8,50,30.18,10.0,East,6.9,-,N/A,,Mostly Cloudy,100,2014-02-20 10:35:00
5:55 AM,51.8,33.8,50,30.19,10.0,East,3.5,-,N/A,,Mostly Cloudy,100,2014-02-20 10:55:00
6:15 AM,51.8,33.8,50,30.19,10.0,East,5.8,-,N/A,,Overcast,100,2014-02-20 11:15:00
6:35 AM,51.8,33.8,50,30.19,10.0,East,6.9,-,N/A,,Mostly Cloudy,90,2014-02-20 11:35:00
6:55 AM,50.0,33.8,54,30.21,10.0,East,4.6,-,N/A,,Mostly Cloudy,100,2014-02-20 11:55:00
7:15 AM,50.0,33.8,54,30.20,10.0,East,8.1,-,N/A,,Mostly Cloudy,90,2014-02-20 12:15:00
7:35 AM,48.2,35.6,62,30.22,10.0,East,5.8,-,N/A,,Scattered Clouds,90,2014-02-20 12:35:00
7:55 AM,50.0,35.6,58,30.22,10.0,East,5.8,-,N/A,,Clear,90,2014-02-20 12:55:00
8:15 AM,50.0,35.6,58,30.23,10.0,East,8.1,-,N/A,,Clear,80,2014-02-20 13:15:00
8:35 AM,50.0,37.4,62,30.24,10.0,East,9.2,-,N/A,,Scattered Clouds,100,2014-02-20 13:35:00
8:55 AM,51.8,35.6,54,30.23,10.0,East,11.5,16.1,N/A,,Scattered Clouds,100,2014-02-20 13:55:00
9:15 AM,51.8,35.6,54,30.23,10.0,ESE,15.0,19.6,N/A,,Clear,120,2014-02-20 14:15:00
9:35 AM,51.8,35.6,54,30.22,10.0,ESE,12.7,17.3,N/A,,Clear,120,2014-02-20 14:35:00
9:55 AM,53.6,37.4,54,30.21,10.0,ESE,11.5,16.1,N/A,,Clear,110,2014-02-20 14:55:00
10:15 AM,53.6,35.6,51,30.22,10.0,SE,5.8,16.1,N/A,,Clear,130,2014-02-20 15:15:00
10:35 AM,55.4,35.6,47,30.22,10.0,ESE,5.8,-,N/A,,Mostly Cloudy,120,2014-02-20 15:35:00
10:55 AM,55.4,35.6,47,30.21,10.0,East,5.8,-,N/A,,Mostly Cloudy,90,2014-02-20 15:55:00
11:15 AM,57.2,35.6,44,30.19,10.0,SE,6.9,-,N/A,,Mostly Cloudy,140,2014-02-20 16:15:00
11:35 AM,59.0,35.6,42,30.18,10.0,ESE,9.2,-,N/A,,Overcast,120,2014-02-20 16:35:00
11:55 AM,60.8,35.6,39,30.17,10.0,SSE,10.4,17.3,N/A,,Scattered Clouds,150,2014-02-20 16:55:00
12:15 PM,60.8,37.4,42,30.15,10.0,SSE,8.1,17.3,N/A,,Clear,150,2014-02-20 17:15:00
12:35 PM,60.8,37.4,42,30.14,10.0,South,4.6,-,N/A,,Clear,170,2014-02-20 17:35:00
12:55 PM,60.8,39.2,45,30.13,10.0,SE,10.4,-,N/A,,Clear,130,2014-02-20 17:55:00
1:15 PM,60.8,39.2,45,30.12,10.0,SSE,6.9,-,N/A,,Clear,150,2014-02-20 18:15:00
1:35 PM,62.6,39.2,42,30.10,10.0,SSE,6.9,-,N/A,,Clear,150,2014-02-20 18:35:00
1:55 PM,62.6,41.0,45,30.09,10.0,SSE,5.8,-,N/A,,Clear,150,2014-02-20 18:55:00
2:15 PM,62.6,41.0,45,30.08,10.0,South,4.6,-,N/A,,Clear,170,2014-02-20 19:15:00
2:35 PM,62.6,41.0,45,30.07,10.0,SE,4.6,-,N/A,,Clear,140,2014-02-20 19:35:00
2:55 PM,62.6,41.0,45,30.07,10.0,SE,6.9,-,N/A,,Clear,130,2014-02-20 19:55:00
3:15 PM,62.6,41.0,45,30.07,10.0,ESE,4.6,-,N/A,,Clear,110,2014-02-20 20:15:00
3:35 PM,62.6,41.0,45,30.06,10.0,ESE,3.5,-,N/A,,Clear,120,2014-02-20 20:35:00
3:55 PM,64.4,42.8,45,30.05,10.0,ESE,5.8,-,N/A,,Clear,120,2014-02-20 20:55:00
4:15 PM,66.2,42.8,43,30.05,10.0,SE,4.6,-,N/A,,Clear,130,2014-02-20 21:15:00
4:35 PM,66.2,44.6,46,30.05,10.0,SE,5.8,-,N/A,,Clear,130,2014-02-20 21:35:00
4:55 PM,68.0,46.4,46,30.04,10.0,SSE,3.5,-,N/A,,Clear,150,2014-02-20 21:55:00
5:15 PM,68.0,46.4,46,30.04,10.0,North,-9999.0,-,N/A,,Clear,0,2014-02-20 22:15:00
5:35 PM,64.4,46.4,52,30.04,10.0,ESE,3.5,-,N/A,,Clear,120,2014-02-20 22:35:00
5:55 PM,64.4,48.2,56,30.04,10.0,ESE,3.5,-,N/A,,Clear,120,2014-02-20 22:55:00
6:15 PM,64.4,50.0,59,30.04,10.0,SSE,3.5,-,N/A,,Clear,150,2014-02-20 23:15:00
6:35 PM,62.6,50.0,63,30.04,10.0,South,3.5,-,N/A,,Scattered Clouds,170,2014-02-20 23:35:00
6:55 PM,64.4,51.8,64,30.04,10.0,South,3.5,-,N/A,,Overcast,170,2014-02-20 23:55:00
7:15 PM,62.6,51.8,68,30.03,10.0,SSW,3.5,-,N/A,,Overcast,200,2014-02-21 00:15:00
7:35 PM,62.6,51.8,68,30.03,10.0,South,3.5,-,N/A,,Mostly Cloudy,190,2014-02-21 00:35:00
7:55 PM,60.8,51.8,72,30.02,10.0,Calm,Calm,-,N/A,,Scattered Clouds,0,2014-02-21 00:55:00
8:15 PM,60.8,51.8,72,30.02,10.0,Calm,Calm,-,N/A,,Clear,0,2014-02-21 01:15:00
8:35 PM,59.0,51.8,77,30.02,10.0,Calm,Calm,-,N/A,,Clear,0,2014-02-21 01:35:00
8:55 PM,57.2,51.8,82,30.01,10.0,Calm,Calm,-,N/A,,Clear,0,2014-02-21 01:55:00
9:15 PM,59.0,51.8,77,30.01,10.0,South,4.6,-,N/A,,Clear,180,2014-02-21 02:15:00
9:35 PM,59.0,51.8,77,30.01,10.0,South,3.5,-,N/A,,Clear,190,2014-02-21 02:35:00
9:55 PM,62.6,53.6,72,30.01,10.0,SSW,8.1,-,N/A,,Clear,200,2014-02-21 02:55:00
10:15 PM,62.6,53.6,72,30.01,10.0,SSW,8.1,-,N/A,,Clear,200,2014-02-21 03:15:00
10:35 PM,64.4,53.6,68,30.01,10.0,South,10.4,16.1,N/A,,Clear,190,2014-02-21 03:35:00
10:55 PM,64.4,53.6,68,30.00,10.0,South,10.4,-,N/A,,Clear,190,2014-02-21 03:55:00
11:15 PM,62.6,53.6,72,30.00,10.0,South,8.1,-,N/A,,Clear,190,2014-02-21 04:15:00
11:35 PM,62.6,55.4,77,29.99,10.0,South,9.2,-,N/A,,Clear,190,2014-02-21 04:35:00
11:55 PM,62.6,55.4,77,29.98,10.0,SSW,15.0,19.6,N/A,,Clear,200,2014-02-21 04:55:00